Location: Ethel Rock
(53.4667°N, 4.5667°W)
Time: 01:19:41
(UTC+00:00)

Lacrosse 4 Rocket - Pass Details

Date: 24 October 2020
Orbit: 541 x 617 km, 68.0° (Epoch: 26 November)

Event Time Altitude Azimuth Distance (km) Brightness Sun altitude
Exits shadow 05:33:11 - 214° (SW) 2,109 4.0 -13.9°
Reaches altitude 10° 05:33:56 10° 214° (SSW) 1,804 3.6 -13.8°
Maximum altitude 05:37:58 84° 127° (SE) 552 1.3 -13.2°
Drops below altitude 10° 05:42:02 10° 39° (NE) 1,824 4.5 -12.6°
Sets 05:44:15 0° 39° (NE) 2,728 5.4 -12.3°
